Terminal Aerodrome Forecast
Issued by NWS

Home | Current Version | Previous Version | Text Only | Print | Product List | Glossary On
Versions: 1 2 3 4 5 6 7 8 9 10 11 12 13 14 15 16 17 18 19 20 21 22 23 24 25 26 27 28 29 30 31 32 33 34 35 36 37 38 39 40 41 42 43 44 45 46 47 48 49 50
000
FTUS46 KEKA 041739
TAFACV
TAF
KACV 041739Z 0418/0518 32008KT P6SM SCT018 OVC025
      TEMPO 0418/0420 BKN018 OVC025
     FM042000 33012G20KT P6SM BKN025
      TEMPO 0422/0501 SCT025
     FM050500 36005KT P6SM OVC020
     FM050800 VRB04KT P6SM BKN015=

USA.gov is the U.S. government's official web portal to all federal, state and local government web resources and services.